Starlink 30771

operational
NORAD ID: 58169 Int'l Des: 2023-166 Owner: SPXS Country: US Constellation: starlink
LEOCIRCULAR

关于 Starlink 30771

正在加载描述...

实时位置

正在加载3D地球...

即将过境

高度历史

Altitude vs Time

uPlot chart will show altitude changes over time

两行轨道根数

1 58169U 23166V 26034.22288996 .00000424 00000-0 26448-4 0 9996
2 58169 53.1626 19.6122 0001273 104.9674 255.1468 15.30192755127907
Epoch: Feb 3, 2026 • Age: 11 hours

当前状态

高度 475.7 km
速度 7.63 km/s
星下点 6.45°N, 3.09°E
发射日期 Oct 29, 2023
运行时间 2.2 years
类型 internet

技术详情

分类 Payload
质量 730.00 kg
干质量 700.00 kg
总质量 730.00 kg
长度 0.30 m
直径 4.10 m
跨度 29.00 m
形状 Box + pan
制造商 SPXS
平台类型 Starlink V2M
阶段状态 In Orbit
所有者/国家 SPXS/US

大型星座

Loading constellations...